Ottumwa, IA

1:06 PM CST on December 14, 2017 (GMT -0600)
Ottumwa Industrial

Weather History for KOTM - November, 2013

Change the Weather History Date:

Sunday, November 3, 2013

  Actual Average Record
Temperature  
Mean Temperature 42 °F 46 °F  
Max Temperature 56 °F 56 °F 77 °F (1978)
Min Temperature 28 °F 35 °F 8 °F (1991)
Degree Days  
Heating Degree Days 23 19  
Month to date heating degree days 62 57  
Since 1 July heating degree days 550 581  
Cooling Degree Days 0 0  
Month to date cooling degree days 0 0  
Year to date cooling degree days 1014 938  
Moisture  
Dew Point 31 °F    
Average Humidity 67    
Maximum Humidity 92    
Minimum Humidity 41    
Precipitation  
Precipitation 0.00 in 0.09 in 1.29 in (1944)
Month to date precipitation 0.02 0.28  
Year to date precipitation 34.12 33.60  
Sea Level Pressure  
Sea Level Pressure 30.13 in    
Wind  
Wind Speed 14 mph (SSE)    
Max Wind Speed 25 mph    
Max Gust Speed 33 mph    
Visibility 10 miles    
Events      
T = Trace of Precipitation, MM = Missing Value Source: NWS Daily Summary

Daily Weather History Graph

Daily Weather History Graph

Search for Another Location

Airport or City:

Trip Planner

Search our weather history database for the weather conditions in past years. The results will help you decide how hot, cold, wet, or windy it might be!

Date:

Astronomy

Nov. 03, 2013 Rise Set
Actual Time 6:43 AM CST 5:02 PM CST
Civil Twilight 6:14 AM CST 5:31 PM CST
Nautical Twilight 5:42 AM CST 6:04 PM CST
Astronomical Twilight 5:09 AM CST 6:36 PM CST
Moon 6:48 AM CST (11/3) 5:17 PM CST (11/3)
Length of Visible Light 11h 16m
Length of Day
10h 19m
New Moon, 0% of the Moon is Illuminated
Nov 3
New Moon
Nov 9
First Quarter
Nov 17
Full
Nov 25
Last Quarter
Dec 2
New

Hourly Weather History & Observations

Time (CST) Temp. Windchill Dew Point Humidity Pressure Visibility Wind Dir Wind Speed Gust Speed Precip Events Conditions
12:53 AM 33.1 °F 28.7 °F 30.0 °F 89% 30.17 in 10.0 mi South 4.6 mph - N/A   Clear
1:53 AM 33.1 °F 28.7 °F 28.9 °F 85% 30.18 in 10.0 mi South 4.6 mph - N/A   Clear
1:53 AM 30.9 °F 27.5 °F 28.0 °F 89% 30.19 in 10.0 mi SSE 3.5 mph - N/A   Clear
2:53 AM 30.9 °F 27.5 °F 28.0 °F 89% 30.19 in 10.0 mi SE 3.5 mph - N/A   Clear
3:53 AM 28.9 °F 22.8 °F 27.0 °F 92% 30.19 in 10.0 mi SSE 5.8 mph - N/A   Clear
4:53 AM 30.0 °F 25.2 °F 27.0 °F 88% 30.19 in 10.0 mi SE 4.6 mph - N/A   Clear
5:53 AM 30.0 °F 24.1 °F 27.0 °F 88% 30.20 in 10.0 mi SE 5.8 mph - N/A   Clear
6:53 AM 30.0 °F 22.4 °F 27.0 °F 88% 30.21 in 10.0 mi SE 8.1 mph - N/A   Clear
7:53 AM 36.0 °F 30.3 °F 32.0 °F 86% 30.21 in 10.0 mi SSE 6.9 mph - N/A   Clear
8:53 AM 42.1 °F 35.7 °F 34.0 °F 73% 30.21 in 10.0 mi South 11.5 mph - N/A   Clear
9:53 AM 48.0 °F - 35.1 °F 61% 30.20 in 10.0 mi SSE 13.8 mph - N/A   Clear
10:53 AM 53.1 °F - 34.0 °F 48% 30.18 in 10.0 mi SSE 17.3 mph 24.2 mph N/A   Clear
11:53 AM 54.0 °F - 32.0 °F 43% 30.14 in 10.0 mi SSE 24.2 mph 28.8 mph N/A   Clear
12:53 PM 55.9 °F - 33.1 °F 42% 30.11 in 10.0 mi SSE 19.6 mph - N/A   Clear
1:53 PM 55.9 °F - 33.1 °F 42% 30.09 in 10.0 mi SSE 20.7 mph 28.8 mph N/A   Clear
2:53 PM 55.0 °F - 32.0 °F 42% 30.07 in 10.0 mi SE 24.2 mph 32.2 mph N/A   Clear
3:53 PM 53.1 °F - 33.1 °F 47% 30.06 in 10.0 mi SSE 20.7 mph 28.8 mph N/A   Clear
4:53 PM 52.0 °F - 32.0 °F 47% 30.04 in 10.0 mi SSE 16.1 mph 23.0 mph N/A   Clear
5:53 PM 51.1 °F - 32.0 °F 48% 30.04 in 10.0 mi SE 15.0 mph 25.3 mph N/A   Clear
6:53 PM 50.0 °F - 32.0 °F 50% 30.05 in 10.0 mi SE 15.0 mph 23.0 mph N/A   Clear
7:53 PM 50.0 °F - 32.0 °F 50% 30.04 in 10.0 mi SE 20.7 mph 26.5 mph N/A   Clear
8:53 PM 48.9 °F - 32.0 °F 52% 30.02 in 10.0 mi SE 19.6 mph 31.1 mph N/A   Clear
9:53 PM 48.9 °F - 33.1 °F 54% 30.03 in 10.0 mi SSE 19.6 mph 27.6 mph N/A   Clear
10:53 PM 48.9 °F - 33.1 °F 54% 30.02 in 10.0 mi SSE 19.6 mph 26.5 mph N/A   Clear